Project,Study,Ord_Occ,Event_Num,Cast_ID,Date_Time_UTC,Date_Time_PST,Lat_Dec,Lon_Dec,Sta_ID,Line,Sta,Depth,Pressure,PrQ,Temp1,Temp1Q,Temp2,Temp2Q,TempAve,Salt1,Salt1Q,Salt1_Corr,Salt2,Salt2Q,Salt2_Corr,SaltAve_Corr,Ox1,Ox1Q,Ox1_CruiseCorr,Ox1_StaCorr,Ox2,Ox2Q,Ox2_CruiseCorr,Ox2_StaCorr,OxAve_StaCorr,Ox1uM,Ox1uM_CruiseCorr,Ox1uM_StaCorr,Ox2uM,Ox2uM_CruiseCorr,Ox2uM_StaCorr,OxAveuM_StaCorr,FluorV,FluorQ,EstChl_CruiseCorr,EstChl_StaCorr,ISUSV,ISUSQ,EstNO3_CruiseCorr,EstNO3_StaCorr,SigThetaTS1,SigThetaTS1Q,SigThetaTS2,SigThetaTS2Q,BAT,XMiss,TransQ,pH,pHQ,SPAR,SPARQ,PAR,PARQ,PoT1,PoT2,DynHt,SVA,OxSat1,OxSat2,BTL_Depth,BTL_Temp,SaltB,OxB,OxBuM,Chl-a,Phaeo,NO3,NO2,NH4,PO4,SIL
CalCOFI,2105SH,006,,2105_006u,05-May-2021 10:29:08,05-May-2021 02:29:08,32.34960,-118.55458,093.3 045.0,093.3,045.0,517.000,521.298,,5.8918,,5.8917,,5.8918,34.3419,,34.3431,34.3429,,34.3448,34.3440,0.2329,,0.3097,0.2281,0.2389,,0.3069,0.2364,0.2323,10.128,13.0866,27.6682,10.390,16.0668,27.2567,27.4625,0.0379,,,,0.5750,,0.0000,,27.0519,,27.0527,,,,,,,,,,,5.8467,5.8466,0.7952,107.092,3.348,3.435,517,5.892,34.3388,0.249,10.83,,,41.46,0.00,0.00,3.24,81.29
CalCOFI,2105SH,006,,2105_006u,05-May-2021 10:29:09,05-May-2021 02:29:09,32.34960,-118.55456,093.3 045.0,093.3,045.0,516.000,520.289,,5.8965,,5.8973,,5.8969,34.3411,,34.3423,34.3423,,34.3442,34.3433,0.2329,,0.3097,0.2281,0.2383,,0.3062,0.2357,0.2319,10.126,13.0845,27.6668,10.363,16.0646,27.2373,27.4521,0.0380,,,,0.5750,,0.0000,,27.0506,,27.0515,,,,,,,,,,,5.8515,5.8523,0.7952,107.201,3.348,3.426,,,,,,,,,,,,
CalCOFI,2105SH,006,,2105_006u,05-May-2021 10:29:10,05-May-2021 02:29:10,32.34960,-118.55456,093.3 045.0,093.3,045.0,515.000,519.279,,5.9003,,5.9004,,5.9004,34.3407,,34.3419,34.3420,,34.3439,34.3429,0.2328,,0.3096,0.2280,0.2382,,0.3061,0.2356,0.2318,10.123,13.0814,27.6646,10.358,16.0614,27.2338,27.4492,0.0379,,,,0.5750,,0.0000,,27.0499,,27.0509,,,,,,,,,,,5.8554,5.8555,0.7952,107.265,3.347,3.425,,,,,,,,,,,,
CalCOFI,2105SH,006,,2105_006u,05-May-2021 10:29:12,05-May-2021 02:29:12,32.34962,-118.55456,093.3 045.0,093.3,045.0,514.000,518.270,,5.9032,,5.9023,,5.9028,34.3402,,34.3414,34.3416,,34.3435,34.3425,0.2328,,0.3096,0.2280,0.2382,,0.3061,0.2356,0.2318,10.121,13.0793,27.6632,10.356,16.0592,27.2323,27.4478,0.0392,,,,0.5751,,0.0000,,27.0491,,27.0503,,,,,,,,,,,5.8584,5.8575,0.7952,107.323,3.347,3.424,,,,,,,,,,,,
CalCOFI,2105SH,006,,2105_006u,05-May-2021 10:29:13,05-May-2021 02:29:13,32.34962,-118.55456,093.3 045.0,093.3,045.0,513.000,517.260,,5.9092,,5.9053,,5.9073,34.3398,,34.3410,34.3414,,34.3433,34.3422,0.2327,,0.3095,0.2279,0.2381,,0.3060,0.2355,0.2317,10.118,13.0762,27.6610,10.355,16.0560,27.2316,27.4463,0.0377,,,,0.5751,,0.0000,,27.0480,,27.0498,,,,,,,,,,,5.8644,5.8606,0.7952,107.419,3.346,3.424,,,,,,,,,,,,
CalCOFI,2105SH,006,,2105_006u,05-May-2021 10:29:14,05-May-2021 02:29:14,32.34962,-118.55456,093.3 045.0,093.3,045.0,512.000,516.251,,5.9075,,5.9047,,5.9061,34.3402,,34.3414,34.3416,,34.3435,34.3425,0.2327,,0.3095,0.2279,0.2386,,0.3065,0.2361,0.2320,10.118,13.0762,27.6610,10.376,16.0560,27.2466,27.4538,0.0377,,,,0.5752,,0.0000,,27.0485,,27.0500,,,,,,,,,,,5.8628,5.8601,0.7952,107.356,3.346,3.431,,,,,,,,,,,,
CalCOFI,2105SH,006,,2105_006u,05-May-2021 10:29:15,05-May-2021 02:29:15,32.34962,-118.55456,093.3 045.0,093.3,045.0,511.000,515.241,,5.9136,,5.9069,,5.9103,34.3386,,34.3398,34.3415,,34.3434,34.3416,0.2326,,0.3094,0.2278,0.2396,,0.3076,0.2371,0.2325,10.115,13.0730,27.6588,10.422,16.0527,27.2796,27.4692,0.0374,,,,0.5753,,0.0000,,27.0465,,27.0496,,,,,,,,,,,5.8690,5.8624,0.7952,107.542,3.345,3.446,,,,,,,,,,,,
CalCOFI,2105SH,006,,2105_006u,05-May-2021 10:29:16,05-May-2021 02:29:16,32.34962,-118.55456,093.3 045.0,093.3,045.0,510.000,514.231,,5.9198,,5.9079,,5.9139,34.3390,,34.3402,34.3417,,34.3436,34.3419,0.2368,,0.3137,0.2323,0.2465,,0.3147,0.2444,0.2384,10.297,13.2633,27.7896,10.720,16.2493,27.4929,27.6413,0.0375,,,,0.5753,,0.0000,,27.0460,,27.0496,,,,,,,,,,,5.8753,5.8634,0.7952,107.582,3.406,3.545,,,,,,,,,,,,
CalCOFI,2105SH,006,,2105_006u,05-May-2021 10:29:17,05-May-2021 02:29:17,32.34962,-118.55456,093.3 045.0,093.3,045.0,509.000,513.222,,5.9229,,5.9150,,5.9190,34.3390,,34.3402,34.3414,,34.3433,34.3418,0.2418,,0.3190,0.2377,0.2458,,0.3140,0.2437,0.2407,10.516,13.4922,27.9470,10.689,16.4858,27.4707,27.7089,0.0379,,,,0.5754,,0.0000,,27.0456,,27.0486,,,,,,,,,,,5.8784,5.8706,0.7952,107.605,3.479,3.536,,,,,,,,,,,,
CalCOFI,2105SH,006,,2105_006u,05-May-2021 10:29:19,05-May-2021 02:29:19,32.34962,-118.55456,093.3 045.0,093.3,045.0,508.000,512.212,,5.9401,,5.9381,,5.9391,34.3377,,34.3389,34.3399,,34.3418,34.3404,0.2371,,0.3141,0.2326,0.2421,,0.3102,0.2398,0.2362,10.310,13.2769,27.7990,10.528,16.2633,27.3555,27.5773,0.0379,,,,0.5756,,0.0000,,27.0424,,27.0444,,,,,,,,,,,5.8957,5.8937,0.7952,107.916,3.412,3.484,,,,,,,,,,,,
CalCOFI,2105SH,006,,2105_006u,05-May-2021 10:29:20,05-May-2021 02:29:20,32.34962,-118.55454,093.3 045.0,093.3,045.0,507.000,511.203,,5.9507,,5.9576,,5.9542,34.3369,,34.3381,34.3383,,34.3402,34.3392,0.2368,,0.3137,0.2323,0.2418,,0.3099,0.2394,0.2359,10.296,13.2622,27.7889,10.517,16.2482,27.3476,27.5683,0.0376,,,,0.5758,,0.0000,,27.0405,,27.0407,,,,,,,,,,,5.9063,5.9132,0.7952,108.096,3.408,3.482,,,,,,,,,,,,
CalCOFI,2105SH,006,,2105_006u,05-May-2021 10:29:21,05-May-2021 02:29:21,32.34962,-118.55454,093.3 045.0,093.3,045.0,506.000,510.193,,5.9534,,5.9512,,5.9523,34.3374,,34.3386,34.3388,,34.3407,34.3397,0.2390,,0.3160,0.2347,0.2419,,0.3100,0.2395,0.2371,10.394,13.3647,27.8593,10.517,16.3541,27.3476,27.6035,0.0375,,,,0.5760,,0.0000,,27.0405,,27.0419,,,,,,,,,,,5.9091,5.9069,0.7952,108.081,3.441,3.481,,,,,,,,,,,,
CalCOFI,2105SH,006,,2105_006u,05-May-2021 10:29:22,05-May-2021 02:29:22,32.34962,-118.55454,093.3 045.0,093.3,045.0,505.000,509.184,,5.9520,,5.9466,,5.9493,34.3372,,34.3384,34.3398,,34.3417,34.3401,0.2405,,0.3176,0.2363,0.2432,,0.3113,0.2409,0.2386,10.458,13.4316,27.9053,10.577,16.4232,27.3905,27.6479,0.0379,,,,0.5761,,0.0000,,27.0405,,27.0432,,,,,,,,,,,5.9078,5.9024,0.7952,108.066,3.462,3.501,,,,,,,,,,,,
CalCOFI,2105SH,006,,2105_006u,05-May-2021 10:29:23,05-May-2021 02:29:23,32.34962,-118.55454,093.3 045.0,093.3,045.0,504.000,508.174,,5.9692,,5.9537,,5.9615,34.3351,,34.3363,34.3389,,34.3408,34.3386,0.2382,,0.3152,0.2338,0.2486,,0.3169,0.2466,0.2402,10.358,13.3271,27.8335,10.809,16.3152,27.5566,27.6951,0.0374,,,,0.5762,,0.0000,,27.0367,,27.0416,,,,,,,,,,,5.9250,5.9096,0.7952,108.429,3.430,3.578,,,,,,,,,,,,
CalCOFI,2105SH,006,,2105_006u,05-May-2021 10:29:24,05-May-2021 02:29:24,32.34962,-118.55454,093.3 045.0,093.3,045.0,503.000,507.165,,5.9749,,5.9634,,5.9692,34.3354,,34.3366,34.3386,,34.3405,34.3386,0.2453,,0.3226,0.2414,0.2530,,0.3215,0.2513,0.2464,10.666,13.6490,28.0548,10.999,16.6478,27.6926,27.8737,0.0379,,,,0.5763,,0.0000,,27.0362,,27.0402,,,,,,,,,,,5.9308,5.9193,0.7952,108.475,3.533,3.642,,,,,,,,,,,,
CalCOFI,2105SH,006,,2105_006u,05-May-2021 10:29:24,05-May-2021 02:29:24,32.34962,-118.55454,093.3 045.0,093.3,045.0,502.000,506.155,,5.9710,,5.9739,,5.9725,34.3366,,34.3378,34.3382,,34.3401,34.3390,0.2451,,0.3224,0.2412,0.2481,,0.3164,0.2461,0.2437,10.657,13.6396,28.0483,10.788,16.6381,27.5416,27.7950,0.0371,,,,0.5764,,0.0000,,27.0377,,27.0385,,,,,,,,,,,5.9270,5.9299,0.7952,108.317,3.529,3.573,,,,,,,,,,,,
CalCOFI,2105SH,006,,2105_006u,05-May-2021 10:29:25,05-May-2021 02:29:25,32.34962,-118.55454,093.3 045.0,093.3,045.0,501.000,505.146,,5.9748,,5.9808,,5.9778,34.3357,,34.3369,34.3372,,34.3391,34.3380,0.2413,,0.3185,0.2371,0.2458,,0.3140,0.2437,0.2404,10.495,13.4703,27.9319,10.687,16.4631,27.4693,27.7006,0.0382,,,,0.5765,,0.0000,,27.0365,,27.0369,,,,,,,,,,,5.9309,5.9368,0.7952,108.421,3.476,3.540,,,,,,,,,,,,
CalCOFI,2105SH,006,,2105_006u,05-May-2021 10:29:26,05-May-2021 02:29:26,32.34963,-118.55453,093.3 045.0,093.3,045.0,500.000,504.136,,5.9796,,5.9829,,5.9813,34.3355,,34.3367,34.3372,,34.3391,34.3379,0.2413,,0.3185,0.2371,0.2457,,0.3139,0.2436,0.2404,10.492,13.4671,27.9298,10.685,16.4599,27.4679,27.6989,0.0370,,,,0.5766,,0.0000,,27.0357,,27.0366,,,,,,,,,,,5.9357,5.9390,0.7952,108.486,3.475,3.540,,,,,,,,,,,,
CalCOFI,2105SH,006,,2105_006u,05-May-2021 10:29:27,05-May-2021 02:29:27,32.34964,-118.55452,093.3 045.0,093.3,045.0,499.000,503.127,,5.9862,,5.9877,,5.9870,34.3351,,34.3363,34.3370,,34.3389,34.3376,0.2412,,0.3183,0.2370,0.2456,,0.3138,0.2435,0.2403,10.489,13.4640,27.9276,10.682,16.4567,27.4657,27.6967,0.0376,,,,0.5767,,0.0000,,27.0345,,27.0358,,,,,,,,,,,5.9424,5.9439,0.7952,108.589,3.475,3.539,,,,,,,,,,,,
CalCOFI,2105SH,006,,2105_006u,05-May-2021 10:29:28,05-May-2021 02:29:28,32.34964,-118.55452,093.3 045.0,093.3,045.0,498.000,502.117,,5.9888,,5.9888,,5.9888,34.3352,,34.3364,34.3368,,34.3387,34.3376,0.2412,,0.3183,0.2370,0.2456,,0.3138,0.2435,0.2403,10.487,13.4619,27.9262,10.680,16.4545,27.4643,27.6953,0.0385,,,,0.5769,,0.0000,,27.0343,,27.0355,,,,,,,,,,,5.9451,5.9451,0.7952,108.600,3.474,3.539,,,,,,,,,,,,
CalCOFI,2105SH,006,,2105_006u,05-May-2021 10:29:29,05-May-2021 02:29:29,32.34964,-118.55452,093.3 045.0,093.3,045.0,497.000,501.108,,5.9879,,5.9893,,5.9886,34.3356,,34.3368,34.3368,,34.3387,34.3378,0.2411,,0.3182,0.2369,0.2456,,0.3138,0.2435,0.2402,10.485,13.4598,27.9247,10.679,16.4523,27.4636,27.6942,0.0382,,,,0.5770,,0.0000,,27.0347,,27.0355,,,,,,,,,,,5.9443,5.9457,0.7952,108.549,3.474,3.538,,,,,,,,,,,,
CalCOFI,2105SH,006,,2105_006u,05-May-2021 10:29:31,05-May-2021 02:29:31,32.34964,-118.55452,093.3 045.0,093.3,045.0,496.000,500.098,,5.9908,,5.9890,,5.9899,34.3350,,34.3362,34.3367,,34.3386,34.3374,0.2411,,0.3182,0.2369,0.2455,,0.3137,0.2434,0.2402,10.483,13.4577,27.9233,10.678,16.4502,27.4628,27.6931,0.0378,,,,0.5771,,0.0000,,27.0339,,27.0354,,,,,,,,,,,5.9473,5.9455,0.7952,108.613,3.473,3.538,,,,,,,,,,,,
CalCOFI,2105SH,006,,2105_006u,05-May-2021 10:29:32,05-May-2021 02:29:32,32.34966,-118.55452,093.3 045.0,093.3,045.0,495.000,499.089,,5.9895,,5.9890,,5.9893,34.3354,,34.3366,34.3362,,34.3381,34.3374,0.2411,,0.3182,0.2369,0.2455,,0.3137,0.2434,0.2402,10.482,13.4567,27.9226,10.676,16.4491,27.4614,27.6920,0.0383,,,,0.5772,,0.0000,,27.0343,,27.0350,,,,,,,,,,,5.9460,5.9455,0.7952,108.561,3.473,3.537,,,,,,,,,,,,
CalCOFI,2105SH,006,,2105_006u,05-May-2021 10:29:33,05-May-2021 02:29:33,32.34964,-118.55452,093.3 045.0,093.3,045.0,494.000,498.079,,5.9944,,5.9970,,5.9957,34.3345,,34.3357,34.3356,,34.3375,34.3366,0.2410,,0.3181,0.2368,0.2455,,0.3137,0.2434,0.2401,10.480,13.4546,27.9211,10.673,16.4469,27.4593,27.6902,0.0383,,,,0.5773,,0.0000,,27.0330,,27.0335,,,,,,,,,,,5.9510,5.9536,0.7952,108.674,3.473,3.537,,,,,,,,,,,,
CalCOFI,2105SH,006,,2105_006u,05-May-2021 10:29:34,05-May-2021 02:29:34,32.34966,-118.55452,093.3 045.0,093.3,045.0,493.000,497.070,,5.9978,,6.0048,,6.0013,34.3344,,34.3356,34.3353,,34.3372,34.3364,0.2409,,0.3180,0.2367,0.2454,,0.3136,0.2432,0.2400,10.477,13.4515,27.9190,10.669,16.4437,27.4564,27.6877,0.0380,,,,0.5774,,0.0000,,27.0324,,27.0322,,,,,,,,,,,5.9545,5.9615,0.7952,108.719,3.472,3.536,,,,,,,,,,,,
CalCOFI,2105SH,006,,2105_006u,05-May-2021 10:29:35,05-May-2021 02:29:35,32.34966,-118.55452,093.3 045.0,093.3,045.0,492.000,496.060,,5.9999,,6.0069,,6.0034,34.3344,,34.3356,34.3351,,34.3370,34.3363,0.2409,,0.3180,0.2367,0.2453,,0.3135,0.2431,0.2399,10.476,13.4504,27.9183,10.667,16.4426,27.4550,27.6867,0.0372,,,,0.5774,,0.0000,,27.0322,,27.0318,,,,,,,,,,,5.9567,5.9637,0.7952,108.729,3.472,3.536,,,,,,,,,,,,
CalCOFI,2105SH,006,,2105_006u,05-May-2021 10:29:36,05-May-2021 02:29:36,32.34966,-118.55452,093.3 045.0,093.3,045.0,491.000,495.051,,6.0024,,6.0065,,6.0045,34.3340,,34.3352,34.3358,,34.3377,34.3365,0.2408,,0.3179,0.2366,0.2453,,0.3135,0.2431,0.2399,10.474,13.4483,27.9168,10.666,16.4405,27.4543,27.6856,0.0366,,,,0.5775,,0.0000,,27.0315,,27.0325,,,,,,,,,,,5.9593,5.9634,0.7952,108.775,3.471,3.535,,,,,,,,,,,,
CalCOFI,2105SH,006,,2105_006u,05-May-2021 10:29:36,05-May-2021 02:29:36,32.34966,-118.55452,093.3 045.0,093.3,045.0,490.000,494.042,,6.0064,,6.0078,,6.0071,34.3339,,34.3351,34.3358,,34.3377,34.3364,0.2408,,0.3179,0.2366,0.2452,,0.3134,0.2430,0.2398,10.471,13.4452,27.9147,10.664,16.4372,27.4528,27.6838,0.0375,,,,0.5775,,0.0000,,27.0309,,27.0323,,,,,,,,,,,5.9633,5.9647,0.7952,108.825,3.471,3.535,,,,,,,,,,,,
CalCOFI,2105SH,006,,2105_006u,05-May-2021 10:29:37,05-May-2021 02:29:37,32.34966,-118.55452,093.3 045.0,093.3,045.0,489.000,493.032,,6.0121,,6.0023,,6.0072,34.3343,,34.3355,34.3358,,34.3377,34.3366,0.2407,,0.3178,0.2365,0.2452,,0.3134,0.2430,0.2398,10.468,13.4420,27.9125,10.664,16.4340,27.4528,27.6827,0.0378,,,,0.5776,,0.0000,,27.0305,,27.0330,,,,,,,,,,,5.9691,5.9594,0.7952,108.857,3.470,3.534,,,,,,,,,,,,
CalCOFI,2105SH,006,,2105_006u,05-May-2021 10:29:38,05-May-2021 02:29:38,32.34966,-118.55452,093.3 045.0,093.3,045.0,488.000,492.023,,6.0112,,6.0100,,6.0106,34.3341,,34.3353,34.3361,,34.3380,34.3367,0.2407,,0.3178,0.2365,0.2451,,0.3133,0.2429,0.2397,10.467,13.4410,27.9118,10.661,16.4329,27.4507,27.6813,0.0373,,,,0.5776,,0.0000,,27.0305,,27.0322,,,,,,,,,,,5.9683,5.9671,0.7952,108.843,3.470,3.534,,,,,,,,,,,,
CalCOFI,2105SH,006,,2105_006u,05-May-2021 10:29:39,05-May-2021 02:29:39,32.34966,-118.55452,093.3 045.0,093.3,045.0,487.000,491.013,,6.0155,,6.0168,,6.0162,34.3344,,34.3356,34.3357,,34.3376,34.3366,0.2424,,0.3196,0.2383,0.2454,,0.3136,0.2432,0.2408,10.542,13.5194,27.9657,10.670,16.5139,27.4571,27.7114,0.0373,,,,0.5777,,0.0000,,27.0301,,27.0310,,,,,,,,,,,5.9727,5.9740,0.7952,108.869,3.495,3.537,,,,,,,,,,,,
CalCOFI,2105SH,006,,2105_006u,05-May-2021 10:29:41,05-May-2021 02:29:41,32.34968,-118.55452,093.3 045.0,093.3,045.0,486.000,490.004,,6.0217,,6.0245,,6.0231,34.3335,,34.3347,34.3360,,34.3379,34.3363,0.2419,,0.3191,0.2378,0.2502,,0.3186,0.2483,0.2431,10.519,13.4954,27.9492,10.878,16.4891,27.6060,27.7776,0.0377,,,,0.5777,,0.0000,,27.0287,,27.0303,,,,,,,,,,,5.9790,5.9818,0.7952,109.000,3.488,3.607,,,,,,,,,,,,
CalCOFI,2105SH,006,,2105_006u,05-May-2021 10:29:42,05-May-2021 02:29:42,32.34966,-118.55452,093.3 045.0,093.3,045.0,485.000,488.994,,6.0231,,6.0289,,6.0260,34.3352,,34.3364,34.3353,,34.3372,34.3368,0.2386,,0.3156,0.2343,0.2453,,0.3135,0.2431,0.2387,10.377,13.3469,27.8471,10.668,16.3357,27.4557,27.6514,0.0387,,,,0.5778,,0.0000,,27.0298,,27.0291,,,,,,,,,,,5.9804,5.9862,0.7952,108.878,3.441,3.537,,,,,,,,,,,,
CalCOFI,2105SH,006,,2105_006u,05-May-2021 10:29:43,05-May-2021 02:29:43,32.34966,-118.55452,093.3 045.0,093.3,045.0,484.000,487.985,,6.0289,,6.0341,,6.0315,34.3333,,34.3345,34.3350,,34.3369,34.3357,0.2441,,0.3214,0.2401,0.2443,,0.3124,0.2421,0.2411,10.617,13.5978,28.0196,10.624,16.5949,27.4242,27.7219,0.0374,,,,0.5778,,0.0000,,27.0276,,27.0282,,,,,,,,,,,5.9863,5.9915,0.7952,109.081,3.521,3.524,,,,,,,,,,,,
CalCOFI,2105SH,006,,2105_006u,05-May-2021 10:29:43,05-May-2021 02:29:43,32.34966,-118.55452,093.3 045.0,093.3,045.0,483.000,486.975,,6.0344,,6.0395,,6.0370,34.3339,,34.3351,34.3348,,34.3367,34.3359,0.2506,,0.3282,0.2471,0.2513,,0.3197,0.2495,0.2483,10.899,13.8926,28.2222,10.928,16.8995,27.6418,27.9320,0.0375,,,,0.5779,,0.0000,,27.0274,,27.0274,,,,,,,,,,,5.9919,5.9970,0.7952,109.094,3.615,3.625,,,,,,,,,,,,
CalCOFI,2105SH,006,,2105_006u,05-May-2021 10:29:44,05-May-2021 02:29:44,32.34966,-118.55452,093.3 045.0,093.3,045.0,482.000,485.966,,6.0423,,6.0367,,6.0395,34.3328,,34.3340,34.3355,,34.3374,34.3357,0.2453,,0.3226,0.2414,0.2562,,0.3248,0.2547,0.2481,10.668,13.6511,28.0562,11.139,16.6500,27.7929,27.9246,0.0379,,,,0.5780,,0.0000,,27.0254,,27.0283,,,,,,,,,,,5.9998,5.9943,0.7952,109.271,3.539,3.695,,,,,,,,,,,,
CalCOFI,2105SH,006,,2105_006u,05-May-2021 10:29:45,05-May-2021 02:29:45,32.34966,-118.55452,093.3 045.0,093.3,045.0,481.000,484.957,,6.0462,,6.0408,,6.0435,34.3332,,34.3344,34.3346,,34.3365,34.3355,0.2442,,0.3215,0.2403,0.2501,,0.3185,0.2482,0.2443,10.618,13.5989,28.0203,10.874,16.5960,27.6032,27.8118,0.0378,,,,0.5780,,0.0000,,27.0253,,27.0271,,,,,,,,,,,6.0038,5.9985,0.7952,109.274,3.522,3.607,,,,,,,,,,,,
CalCOFI,2105SH,006,,2105_006u,05-May-2021 10:29:46,05-May-2021 02:29:46,32.34967,-118.55452,093.3 045.0,093.3,045.0,480.000,483.947,,6.0513,,6.0493,,6.0503,34.3327,,34.3339,34.3348,,34.3367,34.3353,0.2452,,0.3225,0.2413,0.2492,,0.3175,0.2473,0.2443,10.661,13.6438,28.0512,10.838,16.6424,27.5774,27.8143,0.0377,,,,0.5781,,0.0000,,27.0242,,27.0261,,,,,,,,,,,6.0090,6.0070,0.7952,109.364,3.537,3.596,,,,,,,,,,,,
CalCOFI,2105SH,006,,2105_006u,05-May-2021 10:29:48,05-May-2021 02:29:48,32.34968,-118.55452,093.3 045.0,093.3,045.0,479.000,482.938,,6.0556,,6.0550,,6.0553,34.3329,,34.3341,34.3343,,34.3362,34.3352,0.2449,,0.3222,0.2410,0.2492,,0.3175,0.2473,0.2442,10.649,13.6313,28.0426,10.835,16.6295,27.5752,27.8089,0.0380,,,,0.5783,,0.0000,,27.0238,,27.0250,,,,,,,,,,,6.0134,6.0128,0.7952,109.393,3.534,3.595,,,,,,,,,,,,
CalCOFI,2105SH,006,,2105_006u,05-May-2021 10:29:49,05-May-2021 02:29:49,32.34968,-118.55452,093.3 045.0,093.3,045.0,478.000,481.929,,6.0523,,6.0532,,6.0528,34.3330,,34.3342,34.3340,,34.3359,34.3351,0.2446,,0.3219,0.2407,0.2492,,0.3175,0.2473,0.2440,10.637,13.6187,28.0340,10.834,16.6165,27.5745,27.8043,0.0374,,,,0.5784,,0.0000,,27.0243,,27.0250,,,,,,,,,,,6.0102,6.0111,0.7952,109.331,3.529,3.595,,,,,,,,,,,,
CalCOFI,2105SH,006,,2105_006u,05-May-2021 10:29:50,05-May-2021 02:29:50,32.34968,-118.55452,093.3 045.0,093.3,045.0,477.000,480.919,,6.0556,,6.0581,,6.0569,34.3331,,34.3343,34.3338,,34.3357,34.3350,0.2474,,0.3248,0.2437,0.2491,,0.3174,0.2472,0.2455,10.756,13.7431,28.1195,10.831,16.7450,27.5724,27.8460,0.0374,,,,0.5785,,0.0000,,27.0239,,27.0242,,,,,,,,,,,6.0136,6.0160,0.7952,109.358,3.569,3.594,,,,,,,,,,,,
CalCOFI,2105SH,006,,2105_006u,05-May-2021 10:29:51,05-May-2021 02:29:51,32.34968,-118.55452,093.3 045.0,093.3,045.0,476.000,479.910,,6.0645,,6.0586,,6.0616,34.3309,,34.3321,34.3336,,34.3355,34.3338,0.2544,,0.3322,0.2512,0.2490,,0.3173,0.2471,0.2492,11.064,14.0651,28.3408,10.830,17.0777,27.5717,27.9563,0.0370,,,,0.5787,,0.0000,,27.0211,,27.0240,,,,,,,,,,,6.0225,6.0166,0.7952,109.621,3.672,3.594,,,,,,,,,,,,
CalCOFI,2105SH,006,,2105_006u,05-May-2021 10:29:52,05-May-2021 02:29:52,32.34968,-118.55452,093.3 045.0,093.3,045.0,475.000,478.900,,6.0912,,6.0692,,6.0802,34.3274,,34.3286,34.3319,,34.3338,34.3312,0.2495,,0.3270,0.2459,0.2526,,0.3210,0.2509,0.2484,10.850,13.8414,28.1870,10.985,16.8465,27.6826,27.9348,0.0379,,,,0.5789,,0.0000,,27.0149,,27.0213,,,,,,,,,,,6.0492,6.0273,0.7952,110.213,3.603,3.646,,,,,,,,,,,,
CalCOFI,2105SH,006,,2105_006u,05-May-2021 10:29:53,05-May-2021 02:29:53,32.34968,-118.55452,093.3 045.0,093.3,045.0,474.000,477.891,,6.0839,,6.0682,,6.0761,34.3296,,34.3308,34.3338,,34.3357,34.3333,0.2488,,0.3263,0.2452,0.2602,,0.3289,0.2589,0.2521,10.818,13.8079,28.1640,11.312,16.8120,27.9167,28.0404,0.0370,,,,0.5791,,0.0000,,27.0175,,27.0228,,,,,,,,,,,6.0421,6.0264,0.7952,109.947,3.592,3.755,,,,,,,,,,,,
CalCOFI,2105SH,006,,2105_006u,05-May-2021 10:29:54,05-May-2021 02:29:54,32.34968,-118.55452,093.3 045.0,093.3,045.0,473.000,476.882,,6.0778,,6.0900,,6.0839,34.3305,,34.3317,34.3312,,34.3331,34.3324,0.2491,,0.3266,0.2455,0.2581,,0.3267,0.2567,0.2511,10.833,13.8236,28.1748,11.224,16.8282,27.8537,28.0143,0.0365,,,,0.5793,,0.0000,,27.0191,,27.0180,,,,,,,,,,,6.0361,6.0482,0.7952,109.782,3.596,3.727,,,,,,,,,,,,
CalCOFI,2105SH,006,,2105_006u,05-May-2021 10:29:55,05-May-2021 02:29:55,32.34968,-118.55452,093.3 045.0,093.3,045.0,472.000,475.872,,6.1029,,6.1256,,6.1143,34.3245,,34.3257,34.3254,,34.3273,34.3265,0.2552,,0.3330,0.2520,0.2644,,0.3333,0.2633,0.2577,11.099,14.1017,28.3659,11.499,17.1155,28.0506,28.2083,0.0374,,,,0.5795,,0.0000,,27.0111,,27.0089,,,,,,,,,,,6.0612,6.0838,0.7952,110.544,3.687,3.821,,,,,,,,,,,,
CalCOFI,2105SH,006,,2105_006u,05-May-2021 10:29:55,05-May-2021 02:29:55,32.34968,-118.55452,093.3 045.0,093.3,045.0,471.000,474.863,,6.1323,,6.1084,,6.1204,34.3237,,34.3249,34.3289,,34.3308,34.3279,0.2601,,0.3381,0.2573,0.2592,,0.3279,0.2578,0.2576,11.311,14.3233,28.5183,11.269,17.3444,27.8859,28.2021,0.0380,,,,0.5798,,0.0000,,27.0068,,27.0139,,,,,,,,,,,6.0905,6.0667,0.7952,110.975,3.760,3.744,,,,,,,,,,,,
CalCOFI,2105SH,006,,2105_006u,05-May-2021 10:29:56,05-May-2021 02:29:56,32.34968,-118.55452,093.3 045.0,093.3,045.0,470.000,473.854,,6.1372,,6.1271,,6.1322,34.3256,,34.3268,34.3282,,34.3301,34.3285,0.2561,,0.3339,0.2530,0.2578,,0.3264,0.2564,0.2547,11.136,14.1404,28.3925,11.211,17.1554,27.8444,28.1185,0.0377,,,,0.5800,,0.0000,,27.0076,,27.0110,,,,,,,,,,,6.0955,6.0855,0.7952,110.886,3.702,3.726,,,,,,,,,,,,
CalCOFI,2105SH,006,,2105_006u,05-May-2021 10:29:57,05-May-2021 02:29:57,32.34968,-118.55452,093.3 045.0,093.3,045.0,469.000,472.844,,6.1434,,6.1435,,6.1435,34.3271,,34.3283,34.3259,,34.3278,34.3281,0.2626,,0.3407,0.2600,0.2659,,0.3348,0.2649,0.2625,11.418,14.4352,28.5952,11.562,17.4600,28.0957,28.3455,0.0379,,,,0.5803,,0.0000,,27.0080,,27.0070,,,,,,,,,,,6.1018,6.1019,0.7952,110.838,3.796,3.844,,,,,,,,,,,,
CalCOFI,2105SH,006,,2105_006u,05-May-2021 10:29:58,05-May-2021 02:29:58,32.34968,-118.55451,093.3 045.0,093.3,045.0,468.000,471.835,,6.1566,,6.1558,,6.1562,34.3223,,34.3235,34.3265,,34.3284,34.3260,0.2592,,0.3372,0.2563,0.2649,,0.3338,0.2639,0.2601,11.272,14.2825,28.4903,11.518,17.3023,28.0642,28.2773,0.0370,,,,0.5806,,0.0000,,27.0025,,27.0059,,,,,,,,,,,6.1150,6.1142,0.7952,111.356,3.749,3.831,,,,,,,,,,,,
CalCOFI,2105SH,006,,2105_006u,05-May-2021 10:29:59,05-May-2021 02:29:59,32.34968,-118.55450,093.3 045.0,093.3,045.0,467.000,470.826,,6.1737,,6.1678,,6.1708,34.3233,,34.3245,34.3258,,34.3277,34.3261,0.2578,,0.3357,0.2548,0.2657,,0.3346,0.2647,0.2598,11.212,14.2198,28.4472,11.553,17.2375,28.0892,28.2682,0.0386,,,,0.5810,,0.0000,,27.0011,,27.0038,,,,,,,,,,,6.1322,6.1263,0.7952,111.494,3.730,3.843,,,,,,,,,,,,
CalCOFI,2105SH,006,,2105_006u,05-May-2021 10:30:00,05-May-2021 02:30:00,32.34968,-118.55450,093.3 045.0,093.3,045.0,466.000,469.816,,6.1720,,6.1753,,6.1737,34.3231,,34.3243,34.3250,,34.3269,34.3256,0.2656,,0.3439,0.2632,0.2715,,0.3406,0.2708,0.2670,11.548,14.5711,28.6886,11.808,17.6004,28.2718,28.4802,0.0376,,,,0.5814,,0.0000,,27.0011,,27.0023,,,,,,,,,,,6.1306,6.1338,0.7952,111.479,3.842,3.929,,,,,,,,,,,,
CalCOFI,2105SH,006,,2105_006u,05-May-2021 10:30:01,05-May-2021 02:30:01,32.34968,-118.55450,093.3 045.0,093.3,045.0,465.000,468.807,,6.1852,,6.1875,,6.1864,34.3201,,34.3213,34.3229,,34.3248,34.3231,0.2632,,0.3414,0.2606,0.2650,,0.3339,0.2640,0.2623,11.446,14.4644,28.6153,11.523,17.4902,28.0678,28.3416,0.0378,,,,0.5819,,0.0000,,26.9970,,26.9990,,,,,,,,,,,6.1438,6.1462,0.7952,111.860,3.809,3.835,,,,,,,,,,,,
CalCOFI,2105SH,006,,2105_006u,05-May-2021 10:30:03,05-May-2021 02:30:03,32.34968,-118.55450,093.3 045.0,093.3,045.0,464.000,467.798,,6.1959,,6.1962,,6.1961,34.3225,,34.3237,34.3222,,34.3241,34.3239,0.2667,,0.3450,0.2644,0.2689,,0.3379,0.2681,0.2663,11.597,14.6223,28.7238,11.695,17.6533,28.1909,28.4574,0.0380,,,,0.5824,,0.0000,,26.9976,,26.9973,,,,,,,,,,,6.1546,6.1548,0.7952,111.809,3.860,3.893,,,,,,,,,,,,
CalCOFI,2105SH,006,,2105_006u,05-May-2021 10:30:04,05-May-2021 02:30:04,32.34968,-118.55450,093.3 045.0,093.3,045.0,463.000,466.788,,6.2017,,6.2024,,6.2021,34.3185,,34.3197,34.3224,,34.3243,34.3220,0.2719,,0.3505,0.2699,0.2765,,0.3458,0.2761,0.2730,11.824,14.8596,28.8869,12.022,17.8985,28.4250,28.6560,0.0384,,,,0.5828,,0.0000,,26.9936,,26.9967,,,,,,,,,,,6.1605,6.1611,0.7952,112.169,3.936,4.002,,,,,,,,,,,,
CalCOFI,2105SH,006,,2105_006u,05-May-2021 10:30:04,05-May-2021 02:30:04,32.34968,-118.55450,093.3 045.0,093.3,045.0,462.000,465.779,,6.2162,,6.2091,,6.2127,34.3179,,34.3191,34.3219,,34.3238,34.3215,0.2660,,0.3443,0.2636,0.2723,,0.3414,0.2717,0.2677,11.566,14.5899,28.7015,11.839,17.6198,28.2940,28.4978,0.0388,,,,0.5831,,0.0000,,26.9913,,26.9954,,,,,,,,,,,6.1750,6.1679,0.7952,112.387,3.852,3.942,,,,,,,,,,,,